Location: Newark
(15.4608°S, 41.1635°W)
Time: 09:44:38
(UTC+00:00)

Vanguard 3 - Pass Details

Date: 06 August 2021
Orbit: 510 x 3260 km, 33.3° (Epoch: 22 September)

Event Time Altitude Azimuth Distance (km) Brightness Sun altitude
Rises 11:34:17 0° 222° (SW) 2,866 9.5 32.0°
Reaches altitude 10° 11:37:37 10° 195° (SSW) 1,783 8.6 32.6°
Maximum altitude 11:39:45 14° 161° (SSE) 1,485 8.5 33.1°
Drops below altitude 10° 11:41:51 10° 126° (SE) 1,735 9.2 33.5°
Sets 11:45:00 0° 99° (E) 2,733 10.5 34.1°
